Orbital Elements
Epoch 2022 Sept. 18.0 TT = JDT 2459840.5
T 2022 Sept. 15.16714 TT Rudenko
q 1.6923568 (2000.0) P Q
n 0.21289850 Peri. 254.84925 +0.08890951 -0.99106835
a 2.7777148 Node 191.51925 +0.99162293 +0.07868664
e 0.3907377 Incl. 29.84858 -0.09369667 -0.10766582
P 4.63
From 177 observations 2017 Sept. 25-2018 Feb. 9, mean residual 0".7.
|